Regional Weather Roundup
Issued by NWS Mobile, AL

Home | Current Version | Previous Version | Text Only | Print | Product List | Glossary On
Versions: 1 2 3 4 5 6 7 8 9 10 11 12 13 14 15 16 17 18 19 20 21 22 23 24 25 26 27
000
ASUS44 KMOB 260810
RWRMOB
REGIONAL WEATHER ROUNDUP
NATIONAL WEATHER SERVICE MOBILE AL
300 AM CDT SUN OCT 26 2014

NOTE: "FAIR" INDICATES FEW OR NO CLOUDS BELOW 12,000 FEET WITH NO
      SIGNIFICANT WEATHER AND/OR OBSTRUCTIONS TO VISIBILITY.

  * THESE STATIONS ARE PART OF THE UNIVERSITY OF SOUTH ALABAMA
    MESONET AND ARE NOT UNDER NWS OR FAA QUALITY CONTROL.

ALZ061>064-260900-
COASTAL ALABAMA

CITY           SKY/WX    TMP DP  RH WIND       PRES   REMARKS
MOBILE REG APT CLEAR     57  57 100 CALM      30.04F
BROOKLEY FIELD CLEAR     57  57 100 CALM      30.04F
USA CAMPUS*    NOT AVBL
DOG RIVER*     NOT AVBL


CITY           SKY/WX    TMP DP  RH WIND       PRES   REMARKS
MOUNT VERNON*  NOT AVBL
SARALAND*      NOT AVBL
BAY MINETTE*   NOT AVBL
LOXLEY*        NOT AVBL
ROBERTSDALE*   NOT AVBL
FAIRHOPE*      NOT AVBL
ELBERTA*       NOT AVBL
FOLEY*         NOT AVBL
GRAND BAY*     NOT AVBL
DAUPHIN ISLND* NOT AVBL
BON SCOUR NWR* NOT AVBL
GULF SHORES    CLEAR     52  51  97 CALM      30.03F

$$

ALZ051>060-260900-
INTERIOR SOUTHWEST AND SOUTH CENTRAL ALABAMA

CITY           SKY/WX    TMP DP  RH WIND       PRES   REMARKS
GREENVILLE     CLEAR     56  51  84 N3        30.02F
EVERGREEN      CLEAR     52  50  93 CALM      30.03F
CASTLEBERRY*   NOT AVBL
ATMORE*        NOT AVBL
DIXIE*         NOT AVBL
ANDALUSIA/OPP  CLEAR     57  50  77 CALM      30.02F
ANDALUSIA*     NOT AVBL
FLORALA APT    CLEAR     52  49  89 CALM      30.04S
FLORALA*       NOT AVBL

$$

FLZ001>006-260900-
WESTERN FLORIDA PANHANDLE

CITY           SKY/WX    TMP DP  RH WIND       PRES   REMARKS
PENSACOLA      CLEAR     57  52  83 NW3       30.02F
NAS PENSACOLA  PTCLDY    53  53 100 NW3       30.02F
MILTON         CLEAR     52  49  89 CALM      30.03F
WHTNG S FIELD  CLEAR     54  50  86 CALM      30.02F


CITY           SKY/WX    TMP DP  RH WIND       PRES   REMARKS
WALNUT HILL*   NOT AVBL
JAY*           NOT AVBL
DUKE FIELD     CLEAR     52  49  89 CALM      30.02S
CRESTVIEW      CLEAR     49  48  97 CALM      30.04S
VALPARAISO     CLEAR     55  50  85 N5        30.02F
DESTIN         CLEAR     61  55  81 N5        30.01F

$$

MSZ076-079-260900-
INTERIOR SOUTHEAST MISSISSIPPI

CITY           SKY/WX    TMP DP  RH WIND       PRES   REMARKS
LEAKESVILLE*   NOT AVBL
AGRICOLA*      NOT AVBL

$$

MARINE OBSERVATIONS

STATION/POSITION TIME  TEMP    WIND        PRES    WAVE
                       AIR SEA DIR/SP/G            HT/PER
                 (UTC) (F)     (DEG/KT/KT) (MB)    (FT/S)
PASCAGOULA       0800   64     340/  3/  3 1016.7F
PETIT BOIS ISLND 0800   69     350/  6/  7 1017.1F
GRAND BAY        0700   63     330/  2     1018.0S
KATRINA CUT      0700   70     310/  5     1017.6S
CEDAR POINT      0700   66     320/  4     1017.3R
E DAUPHIN ISLAND 0700   68     280/  4/  4 1017.3F
MIDDLE BAY LIGHT 0700   67     300/  4     1016.9R
USCG MOBILE BAY  0800   62 73     CALM     1015.7F
STATE DOCKS      0800   63 75              1016.7F
MEAHER PARK      0700   63        CALM     1017.3F
WEEKS BAY        0700   55                   N/A
FORT MORGAN      0800   69     340/  6/  6 1016.3F
12 S ORANGE BCH  0800   72 77  340/  6/  8 1016.5F   1
PENSACOLA BAY    0800   64 72  320/  2/  4 1016.9S
64 S DAUPHIN ISL 0700   74 78   10/  8/ 10 1017.3F   2/ 4
67 S FORT MORGAN 0700   74                 1016.6F

$$

SELECTED LOCATIONS ACROSS THE REGION

CITY           SKY/WX    TMP DP  RH WIND       PRES   REMARKS
NEW ORLEANS    CLEAR     62  57  83 CALM      30.05F
GULFPORT       CLEAR     58  56  93 CALM      30.03F
PASCAGOULA AP  CLEAR     53  52  96 CALM      30.04F FOG
PASCAGOULA*    NOT AVBL
HATTIESBURG    CLEAR     57  55  93 CALM      30.05F
LAUREL         CLEAR     55  52  88 CALM      30.06F
MERIDIAN       CLEAR     54  53  97 CALM      30.04F
JACKSON        CLEAR     56  55  97 CALM      30.05F FOG
MONTGOMERY     CLEAR     56  53  90 SW3       30.03F
TROY           CLEAR     51  49  92 CALM      30.03F
KINSTON*       NOT AVBL
GENEVA*        NOT AVBL
ASHFORD*       NOT AVBL
DOTHAN         CLEAR     55  50  83 N3        30.04F
PANAMA CITY    CLEAR     52  49  89 NW3       30.00F

$$




USA.gov is the U.S. government's official web portal to all federal, state and local government web resources and services.